Regional Weather Roundup
Issued by NWS

Home | Current Version | Previous Version | Graphics & Text | Print | Product List | Glossary Off
Versions: 1 2 3 4 5 6 7 8 9 10 11 12 13 14 15 16 17 18 19 20 21 22 23 24 25 26 27 28 29 30 31 32 33 34 35 36 37 38 39 40 41 42 43 44 45 46 47 48 49 50

000
ASUS43 KDMX 260801
RWRIA

WEATHER ROUNDUP FOR IOWA
NATIONAL WEATHER SERVICE DES MOINES IA
300 AM CDT MON JUN 26 2017

NOTE: "FAIR" INDICATES FEW OR NO CLOUDS BELOW 12,000 FEET WITH NO
SIGNIFICANT WEATHER AND/OR OBSTRUCTIONS TO VISIBILITY.

* - THESE STATIONS ARE NOT NWS STATIONS...THUS NOT UNDER NWS
QUALITY CONTROL.  THEY ALSO DO NOT REPORT WEATHER SUCH
AS PRECIPITATION OR FOG.

IAZ001>003-012>014-020>022-031>034-043>046-260900-
   NORTHWEST IOWA

CITY           SKY/WX    TMP DP  RH WIND       PRES   REMARKS
CARROLL *      CLOUDY    52  48  87 CALM      30.21F
CHEROKEE *     LGT RAIN  54  52  94 CALM      30.22F
DENISON *      MOCLDY    54  48  82 CALM      30.22F
LE MARS *      CLOUDY    54  50  87 CALM      30.24F
ORANGE CITY *  LGT RAIN  55  54  94 CALM      30.22S
SHELDON *      CLOUDY    55  52  88 SW7       30.20F
SIOUX CITY     LGT RAIN  56  50  80 NE15      30.22R
SPENCER        LGT RAIN  55  53  93 SW9       30.22R
STORM LAKE *   CLOUDY    55  52  88 N9        30.24R
$$

IAZ055>058-069>071-079>083-090>094-260900-
   SOUTHWEST IOWA

CITY           SKY/WX    TMP DP  RH WIND       PRES   REMARKS
ATLANTIC *     MOCLDY    54  50  87 N10       30.23R
AUDUBON *      CLOUDY    54  48  82 CALM      30.24R
CLARINDA *       N/A     50  50 100 CALM      30.20F
COUNCIL BLFS * MOCLDY    57  48  72 CALM      30.18R
CRESTON *      CLEAR     54  45  71 SW7       30.20S
HARLAN  *      LGT RAIN  54  54 100 NE10      30.25S
LAMONI         CLEAR     56  46  69 SW6       30.19F
RED OAK *      CLEAR     52  50  93 CALM      30.17F
SHENANDOAH *   CLEAR     52  48  87 CALM      30.19S
$$

IAZ047>049-059>061-072>074-084-260900-
   CENTRAL IOWA

CITY           SKY/WX    TMP DP  RH WIND       PRES   REMARKS
AMES           LGT RAIN  58  50  75 NW7       30.21R
ANKENY *       MOCLDY    52  50  93 N6        30.22R
BOONE *        DRIZZLE   57  50  77 N8        30.21R
CHARITON *     CLEAR     54  48  82 CALM      30.17F
DES MOINES     PTCLDY    57  48  72 N3        30.19R
GRINNELL*      MOCLDY    51  47  86 W5        30.19R
KNOXVILLE *    CLEAR     52  48  87 CALM      30.17R
MARSHALLTOWN   LGT RAIN  57  48  72 NW15G25   30.18R
NEWTON *       PTCLDY    54  45  71 NW7       30.19R
PELLA *        CLEAR     49  47  91 CALM      30.19S
PERRY *        RAIN      55  52  90 N3        30.22R
$$

IAZ004>006-015-016-023>025-035-036-260900-
   NORTH CENTRAL IOWA

CITY           SKY/WX    TMP DP  RH WIND       PRES   REMARKS
ALGONA *       CLOUDY    55  54  94 W9        30.20R
CLARION *        N/A     55  55 100 W6        30.19S
ESTHERVILLE    CLOUDY    54  52  93 W7        30.19S
FORT DODGE *   CLOUDY    55  48  76 SW5       30.20F
MASON CITY     CLOUDY    55  47  74 W10       30.18S
FOREST CITY *  MOCLDY    55  43  62 W5        30.17F
WEBSTER CITY * MOCLDY    55  52  88 SW6       30.17F
IOWA FALLS *   CLOUDY    56  51  85 W9        30.19F
$$

IAZ007>011-017>019-026>030-037>042-050>054-066-260900-
   NORTHEAST IOWA

CITY           SKY/WX    TMP DP  RH WIND       PRES   REMARKS
CEDAR RAPIDS   CLEAR     48  45  89 W3        30.14F
CHARLES CITY * CLOUDY    52  48  87 W8        30.16R
CLINTON *      PTCLDY    50  47  89 W7        30.14S
DECORAH *      MOCLDY    52  45  76 CALM      30.12R
DUBUQUE        CLEAR     51  44  77 W7        30.12F
MONTICELLO *   CLEAR     48  45  87 CALM      30.13F
WATERLOO       MOCLDY    53  45  74 W8        30.15S
$$

IAZ064-065-067-068-078-260900-
   EAST CENTRAL IOWA

CITY           SKY/WX    TMP DP  RH WIND       PRES   REMARKS
DAVENPORT      CLEAR     52  47  83 W6        30.14F
IOWA CITY      CLEAR     54  45  71 CALM      30.16F
MT. PLEASANT * CLEAR     50  46  84 CALM      30.17F
MUSCATINE *    PTCLDY    54  46  76 CALM      30.15F
QUAD CITIES    CLEAR     52  46  80 CALM      30.14F
$$

IAZ062-063-075>077-085>089-095>099-260900-
   SOUTHEAST IOWA

CITY           SKY/WX    TMP DP  RH WIND       PRES   REMARKS
BURLINGTON     CLEAR     54  47  77 W5        30.16F
FAIRFIELD *    CLEAR     52  46  82 SW3       30.17S
FORT MADISON * CLEAR     55  46  71 W3        30.18S
KEOKUK *       CLEAR     54  48  82 CALM      30.17S
OSKALOOSA *      N/A     50  46  84 SW5       30.18S
OTTUMWA        CLEAR     50  46  86 W5        30.17F
WASHINGTON *   CLEAR     50  46  87 W7        30.17S
$$

ABBREVIATIONS USED IN REMARKS
   TC - TEMPERATURES IN CELSIUS
  WCI - WIND CHILL INDEX
   HX - HEAT INDEX
  VSB - VISIBILITY
$$





USA.gov is the U.S. government's official web portal to all federal, state and local government web resources and services.